Location: Zagreb
(45.8000°N, 16.0000°E)
Time: 20:52:19
(UTC+01:00)

CUTE-I - Pass Details

Date: 30 October 2020
Orbit: 811 x 824 km, 98.7° (Epoch: 01 December)

Event Time Altitude Azimuth Distance (km) Brightness Sun altitude
Rises 18:17:29 0° 195° (SSW) 3,318 ? -16.6°
Reaches altitude 10° 18:20:08 10° 207° (SSW) 2,392 ? -17.1°
Maximum altitude 18:24:38 28° 266° (W) 1,488 ? -17.8°
Drops below altitude 10° 18:29:10 10° 324° (NW) 2,409 ? -18.6°
Sets 18:31:51 0° 336° (NNW) 3,347 ? -19.1°
